This demonstration page uses our WeatherBlox Daily Observations layout. Learn more.

Left ArrowRight Arrow

Hourly Observations for December 3, 2018

Temp ( °F °C ) Dew Point ( °F °C ) Humidity (%) Winds ( mph kmh ) Pressure ( in mb ) Visibility ( mi km ) Precip ( " mm )
12:53 am 00:53 Cloudy 22 -5.6 18 -7.8 85 85 N 13 20 30.19 1023 10 16 0.00 0.00
1:53 am 01:53 Cloudy 22 -5.6 18 -7.8 85 85 N 13 20 30.21 1023 10 16 0.00 0.00
2:53 am 02:53 Cloudy 21 -6.1 18 -7.8 88 88 N 17 28 30.23 1024 10 16 0.00 0.00
3:53 am 03:53 Cloudy 22 -5.6 17 -8.3 82 82 N 14 22 30.24 1024 10 16 0.00 0.00
5:53 am 05:53 Cloudy 21 -6.1 16 -8.9 81 81 NNW 13 20 30.28 1026 10 16 0.00 0.00
6:53 am 06:53 Cloudy 21 -6.1 16 -8.9 81 81 N 14 22 30.31 1026 10 16 0.00 0.03
7:04 am 07:04 Cloudy 21 -6 16 -9 80 80 NNW 14 22 30.36 1028 10 16 0.00 0.00
7:29 am 07:29 Cloudy 20 -6.7 16 -8.9 85 85 NNW 13 20 30.39 1029 10 16 0.00 0.00
7:53 am 07:53 Cloudy 20 -6.7 16 -8.9 85 85 NNW 16 26 30.32 1027 10 16 0.00 0.00
8:53 am 08:53 Cloudy 20 -6.7 15 -9.4 81 81 N 14 22 30.35 1028 10 16 0.00 0.00
9:53 am 09:53 Cloudy 21 -6.1 16 -8.9 81 81 NNW 13 20 30.37 1029 10 16 0.00 0.03
10:53 am 10:53 Cloudy 21 -6.1 15 -9.4 78 78 N 14 22 30.38 1029 10 16 0.00 0.00
11:53 am 11:53 Cloudy 21 -6.1 15 -9.4 78 78 NNE 9 15 30.38 1029 10 16 0.00 0.00
12:53 pm 12:53 Cloudy 22 -5.6 15 -9.4 75 75 NNW 13 20 30.37 1029 8 13 0.00 0.03
1:53 pm 13:53 Cloudy 22 -5.6 16 -8.9 78 78 N 8 13 30.36 1028 10 16 0.00 0.03
2:53 pm 14:53 Cloudy 23 -5 16 -8.9 74 74 NNW 9 15 30.35 1028 10 16 0.00 0.00
3:53 pm 15:53 Cloudy 23 -5 16 -8.9 74 74 NNW 12 19 30.36 1028 10 16 0.00 0.00
4:29 pm 16:29 Cloudy 23 -5 17 -8.3 78 78 NNW 9 15 30.39 1029 10 16 0.00 0.00
4:53 pm 16:53 Cloudy 23 -5 17 -8.3 78 78 NW 8 13 30.37 1029 10 16 0.00 0.00
5:29 pm 17:29 Cloudy 23 -5 17 -8.3 78 78 NNW 10 17 30.42 1030 10 16 0.00 0.00
5:53 pm 17:53 Cloudy 23 -5 16 -8.9 74 74 NNW 10 17 30.37 1029 10 16 0.00 0.00
6:53 pm 18:53 Cloudy 22 -5.6 16 -8.9 78 78 N 12 19 30.38 1029 10 16 0.00 0.00
7:53 pm 19:53 Cloudy 23 -5 16 -8.9 74 74 NNE 7 11 30.39 1029 10 16 0.00 0.00
8:53 pm 20:53 Cloudy 23 -5 16 -8.9 74 74 N 9 15 30.39 1029 10 16 0.00 0.03
9:53 pm 21:53 Cloudy 23 -5 16 -8.9 74 74 NNW 7 11 30.38 1029 10 16 0.00 0.00
10:53 pm 22:53 Cloudy 23 -5 16 -8.9 74 74 NW 7 11 30.39 1029 10 16 0.00 0.00
11:53 pm 23:53 Cloudy 23 -5 17 -8.3 78 78 NNW 7 11 30.38 1029 10 16 0.00 0.00

Powered by AerisWeather